Regional Weather Roundup
Issued by NWS

Home | Current Version | Previous Version | Graphics & Text | Print | Product List | Glossary On
Versions: 1 2 3 4 5 6 7 8 9 10 11 12 13 14 15 16 17 18 19 20 21 22 23 24 25 26 27 28 29 30 31 32 33 34 35 36 37 38 39 40 41 42 43 44 45 46 47 48 49 50
000
ASUS43 KOAX 172110
RWRNE

WEATHER ROUNDUP FOR NEBRASKA
NATIONAL WEATHER SERVICE OMAHA NE
300 PM CST SUN DEC 17 2017

NOTES: SATELLITE DATA IS BEING USED TO AUGMENT CLOUD COVER ABOVE
       12000 FEET.
       "FAIR" INDICATES FEW OR NO CLOUDS BELOW 12,000 FEET WITH NO
       SIGNIFICANT WEATHER AND/OR OBSTRUCTIONS TO VISIBILITY.


NEZ001>004-019>022-054>056-172200-
NEBRASKA PANHANDLE

CITY           SKY/WX    TMP DP  RH WIND       PRES   REMARKS
SCOTTSBLUFF    SUNNY     46  27  47 W14       29.85F
ALLIANCE       MOSUNNY   43  26  51 W12G21    29.85F
CHADRON        SUNNY     44  27  51 SW8       29.83F
GORDON         FAIR      41  28  60 SW9       29.85F
KIMBALL        SUNNY     41  26  56 W8        29.87F
SIDNEY         SUNNY     42  27  55 W8        29.89F
$$

NEZ057>060-069>072-079>082-172200-
SOUTHWEST NEBRASKA

CITY           SKY/WX    TMP DP  RH WIND       PRES   REMARKS
NORTH PLATTE   CLOUDY    39  32  76 W7        29.94F WCI  34
IMPERIAL       CLOUDY    40  30  67 SW6       29.94F
LEXINGTON      CLOUDY    40  31  70 N7        29.96F
MCCOOK         CLOUDY    40  31  70 W3        29.97S
OGALLALA       PTSUNNY   43  31  62 CALM      29.91F
$$

NEZ005>010-023>029-035>040-094-172200-
NORTH CENTRAL NEBRASKA

CITY           SKY/WX    TMP DP  RH WIND       PRES   REMARKS
VALENTINE      CLOUDY    40  29  64 S9        29.91F WCI  34
AINSWORTH      CLOUDY    38  31  73 W5        29.92F WCI  35
BROKEN BOW     CLOUDY    38  30  73 N8        29.94F WCI  32
O`NEILL        PTSUNNY   40  29  64 CALM      29.95F
ORD            CLOUDY    39  29  67 N7        29.95S WCI  34
THEDFORD       CLOUDY    38  31  73 SW5       29.93F WCI  35
$$

NEZ041-046>049-061>064-073>077-083>087-172200-
SOUTH CENTRAL NEBRASKA

CITY           SKY/WX    TMP DP  RH WIND       PRES   REMARKS
GRAND ISLAND   SUNNY     44  31  60 N8        29.96S
AURORA         SUNNY     42  30  62 N9        29.96R
HASTINGS       SUNNY     42  29  59 NW10      29.96R
HEBRON         MOSUNNY   42  32  66 N5        29.97S
HOLDREGE       CLOUDY    40  32  72 W7        29.96F
KEARNEY        CLOUDY    41  30  65 NW10      29.97S
YORK           SUNNY     41  32  70 N9        29.95R
$$

NEZ011>018-030>034-042>045-172200-
NORTHEAST NEBRASKA

CITY           SKY/WX    TMP DP  RH WIND       PRES   REMARKS
NORFOLK        CLOUDY    38  28  67 NE12      29.94F WCI  30
ALBION         PTSUNNY   39  30  70 NW10      29.95F WCI  32
BLAIR          MOSUNNY   34  28  79 N6        29.96S WCI  29
COLUMBUS       MOSUNNY   42  28  57 N8        29.95F
FREMONT        PTSUNNY   34  28  80 N6        29.97S WCI  29
TEKAMAH        CLOUDY    34  27  75 N9        29.97S WCI  27
WAYNE          CLOUDY    35  31  87 N8        29.95F WCI  28
$$

NEZ050>053-065>068-078-088>093-172200-
SOUTHEAST NEBRASKA

CITY           SKY/WX    TMP DP  RH WIND       PRES   REMARKS
LINCOLN        SUNNY     42  30  62 N7        29.97S
OMAHA EPPLEY   PTSUNNY   37  26  64 N6        29.97S WCI  32
BEATRICE       CLOUDY    39  35  85 N3        29.97R FOG
FALLS CITY     CLOUDY    41  37  86 VRB3      29.96R
NEBRASKA CITY  CLOUDY    35  35 100 NE3       29.95F FOG
PLATTSMOUTH    CLOUDY    35  32  90 CALM      29.95F FOG
$$

NEZ044-045-051>053-067-172200-
OMAHA AREA

CITY           SKY/WX    TMP DP  RH WIND       PRES   REMARKS
OMAHA EPPLEY   PTSUNNY   37  26  64 N6        29.97S WCI  32
BLAIR          MOSUNNY   34  28  79 N6        29.96S WCI  29
FREMONT        PTSUNNY   34  28  80 N6        29.97S WCI  29
MILLARD        MOSUNNY   39  29  68 NW5       29.96F
OFFUTT AFB     MOSUNNY   38  29  71 NE7       29.95F WCI  33
PLATTSMOUTH    CLOUDY    35  32  90 CALM      29.95F FOG
WAHOO          FAIR      37  27  68 N6        29.96S WCI  32
$$




USA.gov is the U.S. government's official web portal to all federal, state and local government web resources and services.